#timestamp,LO_Frequency,Hit,StdDev 
1566342015.6,286047002.0,N
1566342035.4,286047002.2,N
1566342055.3,286047002.6,N
1566342075.1,286047001.5,N
1566342076.0,286047001.5,N
1566342095.8,286047002.8,N
1566342115.7,286047000.6,N
1566342135.5,286047000.0,N
1566342155.3,286047000.2,N
1566342175.2,286047000.5,N
1566342195.0,286047000.4,N
1566342195.9,286047000.4,N
1566342245.8,286047002.6,E
1566342255.7,286047000.9,N
1566342275.5,286046999.4,P
1566342295.4,286046999.2,N
1566342315.2,286047001.2,N
1566342335.0,286046998.8,N
1566342336.0,286046998.8,N
1566342355.8,286047000.7,N
1566342375.6,286047001.1,N
1566342395.5,286046998.4,N
1566342415.3,286046999.2,N
1566342435.1,286046997.9,N
1566342455.9,286046996.0,Y
1566342475.7,286046997.7,P
1566342495.6,286046996.8,P
1566342515.4,286046997.3,N
1566342535.2,286046997.9,N
1566342555.1,286046997.3,N
1566342556.0,286046997.3,Y
1566342575.8,286046996.7,P
1566342595.7,286046996.8,P
1566342615.5,286046999.5,N
1566342635.3,286047001.0,N
1566342655.2,286047002.8,N
1566342675.9,286047001.8,N
1566342695.7,286047004.0,N
1566342715.6,286047001.8,N
1566342735.4,286047004.4,N
1566342755.2,286047003.9,N
1566342775.1,286047003.2,N
1566342776.0,286047003.2,N
1566342795.8,286047005.4,N
1566342815.7,286047004.0,N
1566342835.5,286047004.3,N
1566342855.3,286047001.9,N
1566342875.2,286047003.9,N
1566342895.0,286047004.4,N
1566342895.9,286047004.4,N
1566342915.8,286047002.2,N
1566342935.6,286047000.6,N
1566342955.4,286047002.1,N
1566342975.3,286047002.1,N
1566342995.1,286046999.7,N
1566343015.8,286047002.7,N
1566343035.7,286047002.5,N
1566343055.5,286047002.4,N
1566343075.4,286046999.7,N
1566343095.2,286047000.8,N
1566343115.0,286047002.4,N
1566343115.9,286047002.4,N
1566343135.8,286047002.5,N
1566343155.6,286047000.2,N
1566343175.4,286047000.4,N
1566343195.3,286047000.7,N
1566343215.1,286047000.3,N
1566343235.9,286047001.1,N
1566343255.7,286047001.0,N
1566343275.5,286046998.6,N
1566343295.4,286047000.1,N
1566343315.2,286047001.0,N
1566343335.0,286047001.2,N
1566343335.9,286047001.2,N
1566343355.8,286047000.7,N
1566343375.6,286047000.9,N
1566343395.5,286047000.0,N
1566343445.3,286046999.8,E
1566343455.2,286047001.2,N
1566343475.1,286046999.8,P
1566343476.0,286046999.8,N
1566343495.8,286047002.4,Y
1566343515.7,286047000.0,P
1566343535.5,286047000.8,P
1566343555.3,286046998.2,P
1566343575.2,286047000.4,N
1566343595.0,286046998.1,N
1566343595.9,286046998.1,N
1566343615.8,286046998.2,N
1566343635.6,286046998.7,N
1566343655.4,286046998.6,N
1566343675.3,286046998.7,N
1566343695.1,286046996.5,Y
1566343715.8,286046999.8,P
1566343735.7,286047004.4,P
1566343755.5,286046999.8,N
1566343775.4,286047002.5,N
1566343795.2,286047003.9,N
1566343815.0,286047002.1,N
1566343815.9,286047002.1,N
1566343835.8,286047004.4,N
1566343855.6,286047000.9,N
1566343875.4,286046999.9,N
1566343895.3,286047002.5,N
1566343915.1,286047002.6,N
1566343935.9,286047000.0,N
1566343955.7,286046998.5,N
1566343975.5,286046999.8,N
1566343995.4,286047000.6,N
1566344015.2,286047000.5,N
1566344035.0,286046999.7,N
1566344036.0,286046999.7,N
1566344055.8,286047002.7,N
1566344075.6,286047004.4,N
1566344095.5,286047001.6,N
1566344115.3,286047001.4,N
1566344135.1,286047003.3,N
1566344155.9,286047005.4,Y
1566344175.7,286047001.8,P
1566344195.6,286047002.4,P
1566344215.4,286046999.9,N
1566344235.2,286047001.6,N
1566344255.1,286047002.1,N
1566344256.0,286047002.1,N
1566344275.8,286047002.4,Y
1566344295.6,286047001.1,P
1566344315.5,286047000.7,N
1566344335.3,286047000.1,N
1566344355.2,286047001.8,Y
1566344375.9,286047004.2,P
1566344395.7,286047003.6,N
1566344415.6,286047001.4,N
1566344435.4,286047004.3,Y
1566344455.2,286047000.7,P
1566344475.1,286047002.7,N
1566344476.0,286047002.7,N
1566344495.8,286047000.1,N
1566344515.7,286047002.4,N
1566344535.5,286047001.4,N
1566344555.3,286047004.2,Y
1566344575.2,286047002.2,P
1566344595.0,286047002.6,P
1566344595.9,286047002.6,P
1566344615.8,286047002.2,Y
1566344635.6,286046998.1,P
1566344655.4,286046999.2,N
1566344675.3,286046997.5,N
1566344695.1,286046995.5,N
1566344715.8,286046997.1,N
1566344735.7,286046999.6,N
1566344755.5,286046997.0,N
1566344775.4,286046998.9,N
1566344795.2,286046998.4,N
1566344815.0,286046998.9,N
1566344815.9,286046998.9,N
1566344835.8,286046997.9,N
1566344855.6,286046999.5,N
1566344875.4,286046997.1,N
1566344895.3,286046996.8,N
1566344915.1,286046997.3,N
1566344935.9,286046995.8,N
1566344955.7,286046996.7,N
1566344975.5,286046999.6,N
1566344995.4,286046999.1,N
1566345015.2,286046997.6,N
1566345035.0,286046995.1,Y
1566345036.0,286046995.1,P
1566345055.8,286046998.3,N
1566345075.6,286047000.8,N
1566345095.5,286046998.2,N
1566345115.3,286046997.1,N
1566345135.1,286046996.6,N
1566345155.9,286046997.4,N
1566345175.7,286046999.4,N
1566345195.6,286046999.2,N
1566345215.4,286046998.4,N
1566345235.2,286046999.0,N
1566345255.1,286047001.0,N
1566345256.0,286047001.0,N
1566345275.8,286047000.9,N
1566345295.7,286046999.4,N
1566345315.5,286046999.5,N
1566345335.3,286046996.6,N
1566345355.2,286046997.8,N
1566345375.9,286046997.4,N
1566345395.7,286046997.0,N
1566345415.6,286047000.6,N
1566345435.4,286047001.0,N
1566345455.3,286047004.4,N
1566345475.1,286047003.1,N
1566345476.0,286047003.1,N
1566345495.8,286047005.7,N
1566345515.7,286047003.0,N
1566345535.5,286047003.5,N
1566345555.3,286047002.4,N
1566345575.2,286046999.0,N
1566345595.0,286047001.1,N
1566345595.9,286047001.1,N
